Home   Weather   Paris 11 Popincourt   Past weeks
Flag for France

Past Weather in Paris 11 Popincourt, Paris, France — Yesterday and Last 2 Weeks

Now
64 °F

Passing clouds.


Feels Like: 64 °F
Forecast: 83 / 63 °F
Wind: 7 mph from Northwest

Location: Villacoublay

Current Time: Jul 18, 2019 at 10:23:52 pm

Latest Report: Jul 18, 2019 at 10:00 pm


Visibility: 6 mi

Pressure: 29.95 "Hg

Humidity: 100%

Dew Point: 64 °F

Location of Paris 11 PopincourtLocation

Past Weather in Paris 11 Popincourt — Graph

°F

Paris 11 Popincourt Temperature Yesterday

Maximum temperature yesterday: 82 °F (at 3:30 pm)
Minimum temperature yesterday: 59 °F (at 6:00 am)
Average temperature yesterday: 71 °F

High & Low Weather Summary for the Past Weeks

 TemperatureHumidityPressure
High88 °F (Jul 6, 3:30 pm)88% (Jul 12, 6:00 am)30.21 "Hg (Jul 12, 6:00 am)
Low54 °F (Jul 15, 6:30 am)23% (Jul 17, 6:00 pm)29.86 "Hg (Jul 6, 4:00 pm)
Average69 °F53%30.04 "Hg
* Reported Jul 3 9:00 pm — Jul 18 9:00 pm, Paris 11 Popincourt. Weather by CustomWeather, © 2019

Note: Actual official high and low records may vary slightly from our data, if they occured in-between our weather recording intervals... More about our weather records

Advertising

Paris 11 Popincourt Weather History for the Previous 24 Hours

Scroll right to see more
 ConditionsComfort  
Time TempWeatherWind HumidityBarometerVisibility
9:00 pm
Thu, Jul 18
66 °FLight rain. Broken clouds.12 mph88%29.95 "HgN/A
8:30 pm72 °FSunny.10 mph61%29.95 "Hg10 mi
8:00 pm73 °FSunny.9 mph57%29.92 "Hg10 mi
7:30 pm73 °FMostly cloudy.9 mph57%29.92 "HgN/A
7:00 pm73 °FMostly cloudy.10 mph57%29.92 "HgN/A
6:30 pm75 °FMostly cloudy.9 mph54%29.92 "HgN/A
6:00 pm75 °FSunny.12 mph54%29.92 "Hg10 mi
5:30 pm75 °FMostly cloudy.14 mph50%29.92 "HgN/A
5:00 pm77 °FPartly sunny.15 mph47%29.92 "HgN/A
4:30 pm79 °FPassing clouds.14 mph39%29.92 "HgN/A
4:00 pm79 °FPassing clouds.10 mph34%29.92 "HgN/A
3:30 pm79 °FPassing clouds.15 mph32%29.92 "HgN/A
3:00 pm77 °FPassing clouds.12 mph32%29.92 "HgN/A
2:30 pm77 °FPassing clouds.12 mph36%29.95 "HgN/A
2:00 pm75 °FPassing clouds.14 mph39%29.95 "HgN/A
1:30 pm75 °FPassing clouds.12 mph44%29.95 "HgN/A
1:00 pm73 °FPassing clouds.12 mph47%29.95 "HgN/A
12:30 pm70 °FPassing clouds.7 mph57%29.95 "HgN/A
12:00 pm70 °FPassing clouds.8 mph53%29.95 "HgN/A
11:30 am68 °FPassing clouds.8 mph56%29.95 "HgN/A
11:00 am68 °FSunny.10 mph56%29.95 "Hg10 mi
10:30 am68 °FPassing clouds.7 mph56%29.95 "HgN/A
10:00 am66 °FPassing clouds.6 mph64%29.95 "HgN/A
9:30 am64 °FPassing clouds.7 mph68%29.95 "HgN/A
9:00 am63 °FSunny.8 mph73%29.95 "Hg10 mi
8:30 am63 °FSunny.8 mph73%29.95 "Hg10 mi
8:00 am61 °FSunny.8 mph77%29.95 "Hg10 mi
7:30 am61 °FPassing clouds.7 mph77%29.92 "HgN/A
7:00 am59 °FSunny.7 mph77%29.92 "Hg10 mi
6:30 am59 °FSunny.5 mph72%29.92 "Hg10 mi
6:00 am59 °FPassing clouds.5 mph68%29.92 "HgN/A
5:30 am59 °FClear.5 mph68%29.92 "Hg10 mi
5:00 am61 °FClear.7 mph63%29.92 "Hg10 mi
4:00 am63 °FClear.6 mph59%29.92 "Hg10 mi
3:30 am64 °FClear.5 mph56%29.92 "Hg10 mi
3:00 am64 °FClear.3 mph60%29.92 "Hg10 mi
2:30 am64 °FClear.5 mph56%29.95 "Hg10 mi
2:00 am66 °FClear.3 mph52%29.92 "Hg10 mi
1:30 am68 °FClear.3 mph49%29.95 "Hg10 mi
1:00 am68 °FClear.3 mph49%29.92 "Hg10 mi
12:30 am68 °FClear.6 mph49%29.92 "Hg10 mi
12:00 am70 °FClear.8 mph43%29.92 "Hg10 mi
11:30 pm
Wed, Jul 17
70 °FClear.8 mph40%29.92 "Hg10 mi
11:00 pm70 °FClear.7 mph38%29.92 "Hg10 mi
10:30 pm72 °FClear.7 mph36%29.92 "Hg10 mi
10:00 pm73 °FClear.8 mph33%29.92 "Hg10 mi
Weather by CustomWeather, © 2019

See weather overview